Weather History for Mason City, IA

Change the Weather History Date:

Thursday, April 10, 2014

  Actual Average Record
Temperature  
Mean Temperature 50 °F 44 °F  
Max Temperature 62 °F 56 °F 90 °F (1930)
Min Temperature 38 °F 33 °F 18 °F (1960)
Degree Days  
Heating Degree Days 15 21  
Month to date heating degree days 240 229  
Since 1 July heating degree days 7980 7074  
Cooling Degree Days 0 0  
Month to date cooling degree days 0 0  
Year to date cooling degree days 0 0  
Growing Degree Days 2 (Base 50)    
Moisture  
Dew Point 34 °F    
Average Humidity 56    
Maximum Humidity 86    
Minimum Humidity 25    
Precipitation  
Precipitation 0.00 in 0.11 in 1.40 in (2008)
Month to date precipitation 0.68 1.09  
Year to date precipitation 4.91 5.14  
Snow  
Snow 0.00 in 0.10 in 1.50 in (1929)
Month to date snowfall 4.0 1.3  
Since 1 July snowfall 57.0 39.8  
Snow Depth 0.00 in    
Sea Level Pressure  
Sea Level Pressure 29.82 in    
Wind  
Wind Speed 14 mph (NW)    
Max Wind Speed 30 mph    
Max Gust Speed 37 mph    
Visibility 10 miles    
Events      
T = Trace of Precipitation, MM = Missing Value Source: NWS Daily Summary

Daily Weather History Graph

Daily Weather History Graph

Search for Another Location

Airport:

Trip Planner

Search our weather history database for the weather conditions in past years. The results will help you decide how hot, cold, wet, or windy it might be!

Date:

Astronomy

Apr. 10, 2014 Rise Set
Actual Time 6:39 AM CDT 7:50 PM CDT
Civil Twilight 6:10 AM CDT 8:19 PM CDT
Nautical Twilight 5:35 AM CDT 8:54 PM CDT
Astronomical Twilight 4:58 AM CDT 9:31 PM CDT
Moon 3:28 PM CDT (4/10) 4:09 AM CDT (4/10)
Length of Visible Light 14h 09m
Length of Day
13h 10m
Waxing Gibbous, 80% of the Moon is Illuminated
Apr 10
Waxing Gibbous
Apr 15
Full
Apr 22
Last Quarter
Apr 29
New
May 6
First Quarter

Hourly Weather History & Observations

Time (CDT) Temp. Windchill Dew Point Humidity Pressure Visibility Wind Dir Wind Speed Gust Speed Precip Events Conditions
12:53 AM 54.0 °F - 37.0 °F 53% 29.57 in 10.0 mi SSW 17.3 mph - N/A   Clear
1:53 AM 55.0 °F - 37.9 °F 53% 29.65 in 10.0 mi WNW 27.6 mph 36.8 mph N/A   Clear
2:00 AM 55.0 °F - 37.9 °F 53% 29.66 in 10.0 mi WNW 18.4 mph 36.8 mph N/A   Clear
2:53 AM 54.0 °F - 37.9 °F 55% 29.62 in 10.0 mi West 18.4 mph - N/A   Clear
3:53 AM 50.0 °F - 42.1 °F 74% 29.65 in 10.0 mi NNW 16.1 mph - N/A   Clear
4:53 AM 46.9 °F - 42.1 °F 83% 29.68 in 10.0 mi NNW 16.1 mph - N/A   Clear
5:53 AM 45.0 °F 38.9 °F 39.0 °F 80% 29.71 in 10.0 mi NNW 12.7 mph - N/A   Clear
6:53 AM 43.0 °F 38.2 °F 37.9 °F 82% 29.74 in 10.0 mi NNW 8.1 mph - N/A   Clear
7:53 AM 44.6 °F 38.1 °F 37.4 °F 76% 29.79 in 10.0 mi NNW 13.8 mph - N/A   Overcast
8:53 AM 46.4 °F 40.4 °F 35.6 °F 66% 29.83 in 10.0 mi NW 13.8 mph - N/A   Overcast
9:53 AM 52.0 °F - 33.1 °F 49% 29.84 in 10.0 mi NNW 16.1 mph - N/A   Clear
10:53 AM 55.0 °F - 28.0 °F 35% 29.85 in 10.0 mi NNW 18.4 mph - N/A   Clear
11:53 AM 57.9 °F - 28.0 °F 32% 29.87 in 10.0 mi NW 20.7 mph - N/A   Clear
12:53 PM 57.9 °F - 28.0 °F 32% 29.88 in 10.0 mi NNW 23.0 mph 28.8 mph N/A   Clear
1:53 PM 62.1 °F - 28.0 °F 28% 29.88 in 10.0 mi NW 26.5 mph 33.4 mph N/A   Clear
2:53 PM 61.0 °F - 25.0 °F 25% 29.88 in 10.0 mi NNW 26.5 mph 34.5 mph N/A   Clear
3:53 PM 61.0 °F - 30.0 °F 31% 29.89 in 10.0 mi NW 18.4 mph 27.6 mph N/A   Clear
4:53 PM 61.0 °F - 30.0 °F 31% 29.89 in 10.0 mi NW 17.3 mph 26.5 mph N/A   Clear
5:53 PM 60.1 °F - 30.0 °F 32% 29.91 in 10.0 mi NNW 16.1 mph - N/A   Clear
6:53 PM 55.9 °F - 32.0 °F 40% 29.92 in 10.0 mi NNW 9.2 mph - N/A   Clear
7:53 PM 50.0 °F - 35.1 °F 57% 29.94 in 10.0 mi NW 5.8 mph - N/A   Clear
8:53 PM 45.0 °F 42.6 °F 33.1 °F 63% 29.97 in 10.0 mi WSW 4.6 mph - N/A   Clear
9:53 PM 45.0 °F 41.8 °F 33.1 °F 63% 29.99 in 10.0 mi West 5.8 mph - N/A   Clear
10:53 PM 41.0 °F 39.0 °F 33.1 °F 73% 29.99 in 10.0 mi West 3.5 mph - N/A   Clear
11:53 PM 39.9 °F 37.8 °F 34.0 °F 79% 29.99 in 10.0 mi West 3.5 mph - N/A   Clear